When you browse on this site, cookies collect data to enhance your experience and personalize the content and advertising you see.
Visit our Privacy Policy to learn more. By continuing to use the site, you agree to this use of cookies and data.
  • In Czech Republic
  • List of Countries
  • For 7 days
  • Water Temperature
  • Weather Map
  • Weather Widgets
  • user-avatar
    Login

    Hourly Weather Wien

    Today, 23 August, Friday

    Time Temperature Precipitation Wind Pressure Humidity
    00:00 +20°C° 0 mm 1 mps 750 mmHg 75%
    01:00 +20°C° 0 mm 1 mps 750 mmHg 78%
    02:00 +19°C° 0 mm 1 mps 750 mmHg 80%
    03:00 +19°C° 0 mm 1 mps 750 mmHg 81%
    04:00 +19°C° 0 mm 1 mps 750 mmHg 82%
    05:00 +19°C° 0 mm 1 mps 750 mmHg 79%
    06:00 +19°C° 0 mm 2 mps 750 mmHg 76%
    07:00 +20°C° 0 mm 1 mps 751 mmHg 71%
    08:00 +21°C° 0 mm 2 mps 751 mmHg 65%
    09:00 +24°C° 0 mm 2 mps 751 mmHg 58%
    10:00 +25°C° 0 mm 2 mps 751 mmHg 52%
    11:00 +27°C° 0 mm 2 mps 750 mmHg 48%
    12:00 +28°C° 0 mm 2 mps 750 mmHg 45%
    13:00 +30°C° 0 mm 1 mps 750 mmHg 42%
    14:00 +30°C° 0 mm 1 mps 749 mmHg 42%
    15:00 +30°C° 0 mm 1 mps 749 mmHg 41%
    16:00 +30°C° 0 mm 1 mps 749 mmHg 41%
    17:00 +29°C° 0 mm 1 mps 748 mmHg 47%
    18:00 +27°C° 0 mm 1 mps 748 mmHg 52%
    19:00 +26°C° 0 mm 2 mps 748 mmHg 57%
    20:00 +25°C° 0 mm 1 mps 748 mmHg 61%
    21:00 +24°C° 0 mm 1 mps 748 mmHg 65%
    22:00 +23°C° 0 mm 1 mps 749 mmHg 69%
    23:00 +23°C° 0 mm 1 mps 748 mmHg 71%

    Tomorrow, 24 August, Saturday

    Time Temperature Precipitation Wind Pressure Humidity
    00:00 +22°C° 0 mm 1 mps 748 mmHg 74%
    01:00 +22°C° 0 mm 1 mps 748 mmHg 76%
    02:00 +22°C° 0 mm 1 mps 748 mmHg 77%
    03:00 +21°C° 0 mm 1 mps 748 mmHg 79%
    04:00 +21°C° 0 mm 1 mps 747 mmHg 80%
    05:00 +22°C° 0 mm 1 mps 747 mmHg 77%
    06:00 +23°C° 0 mm 1 mps 747 mmHg 74%
    07:00 +23°C° 0 mm 1 mps 747 mmHg 71%
    08:00 +25°C° 0 mm 2 mps 748 mmHg 64%
    09:00 +27°C° 0 mm 2 mps 748 mmHg 58%
    10:00 +29°C° 0 mm 3 mps 748 mmHg 51%
    11:00 +30°C° 0 mm 3 mps 748 mmHg 48%
    12:00 +32°C° 0 mm 4 mps 747 mmHg 45%
    13:00 +33°C° 0 mm 4 mps 747 mmHg 42%
    14:00 +33°C° 0 mm 4 mps 747 mmHg 42%
    15:00 +33°C° 0 mm 4 mps 746 mmHg 42%
    16:00 +33°C° 0 mm 3 mps 746 mmHg 42%
    17:00 +30°C° 0 mm 3 mps 746 mmHg 47%
    18:00 +29°C° 0 mm 2 mps 746 mmHg 52%
    19:00 +27°C° 0 mm 2 mps 746 mmHg 56%
    20:00 +26°C° 0.2 mm 2 mps 746 mmHg 61%
    21:00 +25°C° 0.2 mm 2 mps 746 mmHg 65%
    22:00 +25°C° 0.2 mm 2 mps 746 mmHg 69%
    23:00 +24°C° 0.1 mm 2 mps 746 mmHg 70%

    Day after tomorrow, 25 August, Sunday

    Time Temperature Precipitation Wind Pressure Humidity
    00:00 +24°C° 0.1 mm 2 mps 746 mmHg 72%
    01:00 +24°C° 0.1 mm 2 mps 746 mmHg 73%
    02:00 +23°C° 0 mm 2 mps 746 mmHg 75%
    03:00 +23°C° 0 mm 2 mps 745 mmHg 78%
    04:00 +21°C° 0 mm 2 mps 745 mmHg 80%
    05:00 +23°C° 0 mm 2 mps 745 mmHg 78%
    06:00 +24°C° 0 mm 2 mps 745 mmHg 76%
    07:00 +24°C° 0 mm 2 mps 745 mmHg 73%
    08:00 +26°C° 0 mm 2 mps 746 mmHg 65%
    09:00 +28°C° 0 mm 3 mps 746 mmHg 57%
    10:00 +30°C° 0 mm 3 mps 746 mmHg 49%
    11:00 +31°C° 0 mm 3 mps 746 mmHg 46%
    12:00 +33°C° 0 mm 4 mps 746 mmHg 43%
    13:00 +34°C° 0 mm 4 mps 746 mmHg 39%
    14:00 +34°C° 0 mm 4 mps 745 mmHg 39%
    15:00 +34°C° 0 mm 4 mps 745 mmHg 38%
    16:00 +34°C° 0 mm 3 mps 745 mmHg 38%
    17:00 +31°C° 0.2 mm 3 mps 745 mmHg 43%
    18:00 +29°C° 0.2 mm 2 mps 745 mmHg 49%
    19:00 +28°C° 0.2 mm 1 mps 744 mmHg 54%
    20:00 +26°C° 0.5 mm 2 mps 745 mmHg 60%
    21:00 +25°C° 0.5 mm 2 mps 745 mmHg 66%
    22:00 +24°C° 0.5 mm 2 mps 746 mmHg 72%
    23:00 +24°C° 0.1 mm 2 mps 746 mmHg 74%

    26 August, Monday

    Time Temperature Precipitation Wind Pressure Humidity
    00:00 +23°C° 0.1 mm 1 mps 745 mmHg 75%
    01:00 +23°C° 0.1 mm 1 mps 745 mmHg 77%
    02:00 +22°C° 0.1 mm 1 mps 745 mmHg 78%
    03:00 +22°C° 0.1 mm 1 mps 745 mmHg 80%
    04:00 +22°C° 0.1 mm 1 mps 745 mmHg 81%
    05:00 +22°C° 0.2 mm 1 mps 745 mmHg 79%
    06:00 +23°C° 0.2 mm 1 mps 746 mmHg 77%
    07:00 +22°C° 0.2 mm 0 mps 746 mmHg 75%
    08:00 +25°C° 0 mm 1 mps 746 mmHg 67%
    09:00 +27°C° 0 mm 1 mps 746 mmHg 60%
    10:00 +29°C° 0 mm 2 mps 746 mmHg 52%
    11:00 +30°C° 0 mm 2 mps 746 mmHg 48%
    12:00 +33°C° 0 mm 3 mps 746 mmHg 43%
    13:00 +34°C° 0 mm 3 mps 745 mmHg 39%
    14:00 +34°C° 0 mm 4 mps 745 mmHg 38%
    15:00 +34°C° 0 mm 4 mps 745 mmHg 36%
    16:00 +34°C° 0 mm 4 mps 744 mmHg 35%
    17:00 +32°C° 0 mm 4 mps 744 mmHg 40%
    18:00 +30°C° 0 mm 3 mps 744 mmHg 46%
    19:00 +28°C° 0 mm 3 mps 744 mmHg 51%
    20:00 +27°C° 0.2 mm 2 mps 745 mmHg 56%
    21:00 +26°C° 0.2 mm 2 mps 745 mmHg 60%
    22:00 +25°C° 0.2 mm 2 mps 745 mmHg 64%
    23:00 +24°C° 0.1 mm 2 mps 745 mmHg 67%

    27 August, Tuesday

    Time Temperature Precipitation Wind Pressure Humidity
    00:00 +24°C° 0.1 mm 2 mps 745 mmHg 69%
    01:00 +23°C° 0.1 mm 1 mps 745 mmHg 72%
    02:00 +23°C° 0 mm 1 mps 745 mmHg 74%
    03:00 +22°C° 0 mm 1 mps 745 mmHg 75%
    04:00 +22°C° 0 mm 1 mps 745 mmHg 77%
    05:00 +23°C° 0 mm 1 mps 745 mmHg 74%
    06:00 +23°C° 0 mm 1 mps 745 mmHg 71%
    07:00 +24°C° 0 mm 1 mps 745 mmHg 69%
    08:00 +26°C° 0 mm 2 mps 745 mmHg 61%
    09:00 +28°C° 0 mm 3 mps 745 mmHg 54%
    10:00 +30°C° 0 mm 4 mps 745 mmHg 47%
    11:00 +32°C° 0 mm 4 mps 745 mmHg 43%
    12:00 +33°C° 0 mm 5 mps 745 mmHg 39%
    13:00 +35°C° 0 mm 5 mps 745 mmHg 36%
    14:00 +35°C° 0 mm 5 mps 745 mmHg 35%
    15:00 +35°C° 0 mm 5 mps 744 mmHg 34%
    16:00 +35°C° 0 mm 5 mps 744 mmHg 33%
    17:00 +33°C° 0 mm 4 mps 744 mmHg 37%
    18:00 +31°C° 0 mm 3 mps 744 mmHg 42%
    19:00 +29°C° 0 mm 2 mps 744 mmHg 47%
    20:00 +28°C° 0 mm 2 mps 744 mmHg 49%
    21:00 +27°C° 0 mm 2 mps 745 mmHg 52%
    22:00 +26°C° 0 mm 2 mps 745 mmHg 54%
    23:00 +26°C° 0 mm 2 mps 745 mmHg 56%

    28 August, Wednesday

    Time Temperature Precipitation Wind Pressure Humidity
    00:00 +25°C° 0 mm 2 mps 745 mmHg 57%
    01:00 +25°C° 0 mm 2 mps 745 mmHg 58%
    02:00 +24°C° 0 mm 2 mps 745 mmHg 59%
    03:00 +24°C° 0 mm 2 mps 744 mmHg 60%
    04:00 +23°C° 0 mm 2 mps 744 mmHg 61%
    05:00 +24°C° 0 mm 2 mps 744 mmHg 60%
    06:00 +25°C° 0 mm 2 mps 745 mmHg 59%
    07:00 +25°C° 0 mm 2 mps 745 mmHg 57%
    08:00 +27°C° 0 mm 3 mps 745 mmHg 51%
    09:00 +30°C° 0 mm 4 mps 745 mmHg 44%
    10:00 +33°C° 0 mm 4 mps 745 mmHg 38%
    11:00 +34°C° 0 mm 5 mps 745 mmHg 34%
    12:00 +35°C° 0 mm 5 mps 745 mmHg 31%
    13:00 +36°C° 0 mm 5 mps 744 mmHg 27%
    14:00 +36°C° 0 mm 5 mps 744 mmHg 27%
    15:00 +36°C° 0 mm 5 mps 744 mmHg 27%
    16:00 +36°C° 0 mm 4 mps 744 mmHg 27%
    17:00 +34°C° 0 mm 3 mps 744 mmHg 30%
    18:00 +31°C° 0 mm 2 mps 744 mmHg 34%
    19:00 +29°C° 0 mm 1 mps 744 mmHg 38%
    20:00 +29°C° 0 mm 1 mps 744 mmHg 41%
    21:00 +28°C° 0 mm 1 mps 745 mmHg 43%
    22:00 +27°C° 0 mm 1 mps 745 mmHg 46%
    23:00 +26°C° 0 mm 1 mps 745 mmHg 50%
    Show more